EW6228 Weather Reports


Display with metric or nautical units.
time (UTC)temp
F
wind
direction
speed
MPH
gust
MPH
rain 1hr
in
rain 24hr
in
rain mn
in
humidity
%
barometer
mb
20190323202250 72 145 13.0 19.0 0.00 0.00 0.00 76 1018.2
20190323201743 72 118 12.0 18.0 0.00 0.00 0.00 75 1018.3
20190323201251 72 106 11.0 18.0 0.00 0.00 0.00 75 1018.4
20190323200740 73 130 11.0 19.0 0.00 0.00 0.00 76 1018.5
20190323200249 73 127 12.0 19.0 0.00 0.00 0.00 76 1018.5
20190323195738 73 111 12.0 21.0 0.00 0.00 0.00 75 1018.6
20190323195250 73 129 12.0 22.0 0.00 0.00 0.00 75 1018.5
20190323194738 73 124 12.0 22.0 0.00 0.00 0.00 75 1018.6
20190323194250 73 150 12.0 17.0 0.00 0.00 0.00 75 1018.5
20190323193738 73 115 12.0 17.0 0.00 0.00 0.00 75 1018.5
20190323193251 73 136 11.0 20.0 0.00 0.00 0.00 74 1018.7
20190323192739 74 124 12.0 20.0 0.00 0.00 0.00 74 1018.8
20190323192249 73 140 13.0 24.0 0.00 0.00 0.00 75 1018.7
20190323191740 73 97 13.0 24.0 0.00 0.00 0.00 74 1018.6
20190323191248 73 124 12.0 22.0 0.00 0.00 0.00 74 1018.6
20190323190738 73 133 12.0 20.0 0.00 0.00 0.00 75 1018.6
20190323190249 74 113 12.0 20.0 0.00 0.00 0.00 75 1018.7
20190323185735 73 130 12.0 20.0 0.00 0.00 0.00 73 1018.8
20190323185235 73 132 12.0 19.0 0.00 0.00 0.00 75 1018.9
20190323184733 73 123 10.0 18.0 0.00 0.00 0.00 75 1019.1
20190323184234 73 140 10.0 18.0 0.00 0.00 0.00 75 1019.2
20190323183734 73 132 11.0 17.0 0.00 0.00 0.00 76 1019.2
20190323183234 73 134 11.0 22.0 0.00 0.00 0.00 76 1019.3
20190323182732 73 117 12.0 22.0 0.00 0.00 0.00 75 1019.2
20190323182232 73 140 12.0 20.0 0.00 0.00 0.00 75 1019.3
20190323181729 73 132 13.0 21.0 0.00 0.00 0.00 76 1019.2
20190323181230 73 123 13.0 21.0 0.00 0.00 0.00 74 1019.3
20190323180731 73 143 11.0 22.0 0.00 0.00 0.00 74 1019.4
20190323180244 73 138 11.0 22.0 0.00 0.00 0.00 73 1019.5
20190323175729 73 141 12.0 23.0 0.00 0.00 0.00 74 1019.6
20190323175247 73 141 13.0 23.0 0.00 0.00 0.00 76 1019.5
20190323174729 73 138 12.0 19.0 0.00 0.00 0.00 74 1019.6
20190323174239 73 132 13.0 20.0 0.00 0.00 0.00 74 1019.8
20190323173729 73 162 13.0 22.0 0.00 0.00 0.00 75 1019.8
20190323173238 73 137 12.0 22.0 0.00 0.00 0.00 75 1019.7
20190323172727 73 119 12.0 21.0 0.00 0.00 0.00 76 1019.9
20190323172244 73 142 12.0 23.0 0.00 0.00 0.00 75 1020.0
20190323171730 73 149 13.0 25.0 0.00 0.00 0.00 75 1020.0
20190323171237 73 132 12.0 25.0 0.00 0.00 0.00 76 1020.0
20190323170732 72 133 12.0 21.0 0.00 0.00 0.00 76 1020.0
20190323170237 72 124 13.0 20.0 0.00 0.00 0.00 77 1020.1
20190323165723 72 137 13.0 20.0 0.00 0.00 0.00 78 1020.3
20190323165225 71 137 12.0 19.0 0.00 0.00 0.00 78 1020.3
20190323164721 71 116 11.0 22.0 0.00 0.00 0.00 79 1020.2
20190323164222 71 139 11.0 22.0 0.00 0.00 0.00 79 1020.3
20190323163723 71 144 10.0 19.0 0.00 0.00 0.00 80 1020.3
20190323163223 70 146 10.0 19.0 0.00 0.00 0.00 80 1020.3
20190323162721 70 124 10.0 15.0 0.00 0.00 0.00 80 1020.3
20190323161215 70 136 8.0 15.0 0.00 0.00 0.00 81 1020.3
20190323160713 70 107 8.0 14.0 0.00 0.00 0.00 82 1020.3
20190323160213 69 125 8.0 16.0 0.00 0.00 0.00 82 1020.3
20190323155714 69 139 8.0 16.0 0.00 0.00 0.00 82 1020.2
20190323155215 69 113 8.0 14.0 0.00 0.00 0.00 83 1020.2
20190323154714 69 98 7.0 12.0 0.00 0.00 0.00 83 1020.1
20190323154214 69 115 6.0 12.0 0.00 0.00 0.00 84 1020.1
20190323153715 69 102 7.0 14.0 0.00 0.00 0.00 84 1020.1
20190323153215 69 115 7.0 14.0 0.00 0.00 0.00 84 1020.1
20190323152714 69 105 6.0 12.0 0.00 0.00 0.00 84 1020.1
20190323152215 69 128 6.0 11.0 0.00 0.00 0.00 85 1020.1
20190323151713 69 133 6.0 11.0 0.00 0.00 0.00 85 1020.1
20190323151212 68 132 7.0 14.0 0.00 0.00 0.00 85 1020.1
20190323150712 68 115 6.0 14.0 0.00 0.00 0.00 85 1020.0
20190323150211 68 115 6.0 12.0 0.00 0.00 0.00 86 1019.9
20190323145708 68 130 6.0 11.0 0.00 0.00 0.00 86 1019.8
20190323145211 68 125 6.0 11.0 0.00 0.00 0.00 86 1019.6
20190323144709 68 140 5.0 11.0 0.00 0.00 0.00 86 1019.5
20190323144210 68 114 5.0 10.0 0.00 0.00 0.00 87 1019.6
20190323143708 67 127 6.0 11.0 0.00 0.00 0.00 87 1019.5
20190323143213 67 126 5.0 11.0 0.00 0.00 0.00 87 1019.4
20190323142708 67 110 5.0 10.0 0.00 0.00 0.00 87 1019.3
20190323142210 67 136 5.0 10.0 0.00 0.00 0.00 88 1019.3
20190323141705 67 101 5.0 10.0 0.00 0.00 0.00 88 1019.2
20190323141207 67 117 5.0 10.0 0.00 0.00 0.00 88 1019.0
20190323140703 67 122 5.0 10.0 0.00 0.00 0.00 88 1019.0
20190323140207 67 109 4.0 10.0 0.00 0.00 0.00 89 1018.9
20190323135702 66 118 3.0 9.0 0.00 0.00 0.00 89 1018.9
20190323135204 66 114 3.0 9.0 0.00 0.00 0.00 89 1018.9
20190323134659 66 108 3.0 9.0 0.00 0.00 0.00 90 1018.8
20190323134205 66 110 4.0 9.0 0.00 0.00 0.00 90 1018.8
20190323133700 66 112 4.0 9.0 0.00 0.00 0.00 90 1018.7
20190323133206 66 110 2.0 9.0 0.00 0.00 0.00 90 1018.6
20190323132700 65 109 2.0 8.0 0.00 0.00 0.00 90 1018.7
20190323132205 65 101 4.0 10.0 0.00 0.00 0.00 90 1018.6
20190323131659 65 109 4.0 10.0 0.00 0.00 0.00 90 1018.4
20190323131204 65 118 4.0 8.0 0.00 0.00 0.00 90 1018.4
20190323130658 65 117 3.0 7.0 0.00 0.00 0.00 91 1018.3
20190323130204 65 104 2.0 6.0 0.00 0.00 0.00 91 1018.3
20190323125657 65 110 0.0 4.0 0.00 0.00 0.00 91 1018.3
20190323125205 65 126 0.0 0.0 0.00 0.00 0.00 91 1018.3
20190323124656 65 131 0.0 0.0 0.00 0.00 0.00 90 1018.3
20190323124202 65 132 0.0 0.0 0.00 0.00 0.00 90 1018.3
20190323123657 65 127 0.0 0.0 0.00 0.00 0.00 90 1018.2
20190323123203 65 131 0.0 0.0 0.00 0.00 0.00 90 1018.1
20190323122658 65 130 0.0 0.0 0.00 0.00 0.00 90 1018.1
20190323122201 65 131 0.0 4.0 0.00 0.00 0.00 90 1017.9
20190323121658 65 130 1.0 7.0 0.00 0.00 0.00 90 1017.8
20190323121159 65 115 1.0 7.0 0.00 0.00 0.00 90 1017.7
20190323120658 65 114 0.0 0.0 0.00 0.00 0.00 90 1017.7
20190323120159 65 136 0.0 1.0 0.00 0.00 0.00 90 1017.8
20190323115656 64 126 2.0 7.0 0.00 0.00 0.00 91 1017.5
20190323115155 64 115 2.0 7.0 0.00 0.00 0.00 91 1017.4
20190323114653 64 119 1.0 5.0 0.00 0.00 0.00 91 1017.4
20190323114157 64 135 1.0 4.0 0.00 0.00 0.00 91 1017.4
20190323113655 64 129 1.0 5.0 0.00 0.00 0.00 91 1017.3
20190323113155 64 126 1.0 5.0 0.00 0.00 0.00 91 1017.1
20190323112650 64 136 1.0 5.0 0.00 0.00 0.00 91 1017.2
20190323112154 64 114 2.0 7.0 0.00 0.00 0.00 91 1017.1
20190323111648 64 134 3.0 7.0 0.00 0.00 0.00 91 1017.0
20190323111153 64 140 3.0 6.0 0.00 0.00 0.00 91 1017.1
20190323110648 64 138 3.0 8.0 0.00 0.00 0.00 91 1017.1
20190323110153 64 119 2.0 8.0 0.00 0.00 0.00 91 1016.9
20190323105646 64 132 2.0 7.0 0.00 0.00 0.00 91 1016.9
20190323105153 64 131 2.0 7.0 0.00 0.00 0.00 91 1016.9
20190323104648 63 142 2.0 7.0 0.00 0.00 0.00 91 1016.9
20190323104152 63 142 2.0 7.0 0.00 0.00 0.00 91 1016.7
20190323103645 63 122 2.0 6.0 0.00 0.00 0.00 91 1016.8
20190323103151 63 117 2.0 6.0 0.00 0.00 0.00 92 1016.9
20190323102644 63 114 2.0 7.0 0.00 0.00 0.00 92 1016.8
20190323102153 63 128 2.0 7.0 0.00 0.00 0.00 92 1016.7
20190323101645 63 125 2.0 5.0 0.00 0.00 0.00 92 1016.8
20190323101151 63 130 0.0 4.0 0.00 0.00 0.00 92 1016.9
20190323100646 62 120 0.0 0.0 0.00 0.00 0.00 92 1017.0
20190323100151 62 123 0.0 0.0 0.00 0.00 0.00 92 1017.0
20190323095645 62 134 0.0 0.0 0.00 0.00 0.00 92 1017.0
20190323095152 62 134 0.0 0.0 0.00 0.00 0.00 92 1017.1
20190323094644 62 133 0.0 0.0 0.00 0.00 0.00 92 1017.0
20190323094153 62 139 0.0 0.0 0.00 0.00 0.00 92 1017.1
20190323093644 62 135 0.0 0.0 0.00 0.00 0.00 92 1017.0
20190323093152 62 134 0.0 0.0 0.00 0.00 0.00 92 1017.0
20190323092644 62 128 0.0 0.0 0.00 0.00 0.00 92 1017.0
20190323092151 62 138 0.0 0.0 0.00 0.00 0.00 92 1017.2
20190323091645 62 149 0.0 0.0 0.00 0.00 0.00 92 1017.0
20190323091151 62 134 0.0 0.0 0.00 0.00 0.00 92 1017.1
20190323090644 62 132 0.0 0.0 0.00 0.00 0.00 92 1017.1
20190323090150 61 130 0.0 0.0 0.00 0.00 0.00 92 1017.2
20190323085645 61 130 0.0 0.0 0.00 0.00 0.00 91 1017.3
20190323085152 61 131 0.0 0.0 0.00 0.00 0.00 91 1017.3
20190323084645 61 131 0.0 0.0 0.00 0.00 0.00 91 1017.4
20190323084150 61 130 0.0 0.0 0.00 0.00 0.00 91 1017.5
20190323083646 61 125 0.0 0.0 0.00 0.00 0.00 91 1017.6
20190323083155 62 124 0.0 0.0 0.00 0.00 0.00 92 1017.6
20190323082644 62 134 0.0 3.0 0.00 0.00 0.00 92 1017.6
20190323082150 62 139 0.0 3.0 0.00 0.00 0.00 92 1017.7
20190323081645 62 103 0.0 3.0 0.00 0.00 0.00 92 1017.7
20190323081151 61 131 0.0 0.0 0.00 0.00 0.00 92 1017.8
20190323080645 61 115 0.0 4.0 0.00 0.00 0.00 92 1017.7
20190323080150 61 100 0.0 4.0 0.00 0.00 0.00 92 1017.7
20190323075644 61 104 0.0 3.0 0.00 0.00 0.00 92 1017.9
20190323075150 60 105 0.0 0.0 0.00 0.00 0.00 92 1018.0
20190323074644 60 105 0.0 0.0 0.00 0.00 0.00 92 1018.3
20190323074151 60 105 0.0 0.0 0.00 0.00 0.00 92 1018.4
20190323073644 60 105 0.0 0.0 0.00 0.00 0.00 92 1018.4
20190323073150 60 105 0.0 0.0 0.00 0.00 0.00 92 1018.4
20190323072644 60 105 0.0 0.0 0.00 0.00 0.00 92 1018.4
20190323072152 60 105 0.0 0.0 0.00 0.00 0.00 92 1018.4
20190323071645 60 105 0.0 0.0 0.00 0.00 0.00 92 1018.5
20190323071152 60 105 0.0 0.0 0.00 0.00 0.00 91 1018.5
20190323070645 60 105 0.0 0.0 0.00 0.00 0.00 91 1018.5
20190323070150 59 105 0.0 0.0 0.00 0.00 0.00 91 1018.5
20190323065645 59 105 0.0 0.0 0.00 0.00 0.00 91 1018.5
20190323065152 59 105 0.0 0.0 0.00 0.00 0.00 91 1018.5
20190323064644 59 105 0.0 0.0 0.00 0.00 0.00 91 1018.5
20190323064150 59 105 0.0 0.0 0.00 0.00 0.00 91 1018.6
20190323063645 59 105 0.0 0.0 0.00 0.00 0.00 91 1018.6
20190323063151 59 105 0.0 0.0 0.00 0.00 0.00 91 1018.7
20190323062645 59 105 0.0 0.0 0.00 0.00 0.00 91 1018.8
20190323062151 59 105 0.0 0.0 0.00 0.00 0.00 91 1018.7
20190323061645 59 105 0.0 0.0 0.00 0.00 0.00 90 1018.8
20190323061152 59 105 0.0 0.0 0.00 0.00 0.00 90 1018.7
20190323060645 59 105 0.0 0.0 0.00 0.00 0.00 90 1018.8
20190323060151 59 105 0.0 0.0 0.00 0.00 0.00 90 1018.9
20190323055644 59 105 0.0 0.0 0.00 0.00 0.00 90 1018.8
20190323055151 59 105 0.0 0.0 0.00 0.00 0.00 89 1019.0
20190323054647 59 105 0.0 0.0 0.00 0.00 0.00 89 1018.9
20190323054151 59 105 0.0 0.0 0.00 0.00 0.00 89 1019.0
20190323053644 60 105 0.0 0.0 0.00 0.00 0.00 89 1019.0
20190323053153 60 105 0.0 0.0 0.00 0.00 0.00 89 1018.9
20190323052646 60 105 0.0 0.0 0.00 0.00 0.00 88 1018.9
20190323052151 60 105 0.0 0.0 0.00 0.00 0.00 88 1019.0
20190323051645 60 105 0.0 0.0 0.00 0.00 0.00 88 1019.0
20190323051150 60 105 0.0 0.0 0.00 0.00 0.00 88 1019.0
20190323050644 60 105 0.0 0.0 0.00 0.00 0.00 88 1019.0
20190323050152 60 105 0.0 0.0 0.00 0.00 0.00 88 1019.0
20190323045645 60 105 0.0 0.0 0.00 0.00 0.00 88 1019.0
20190323045150 60 105 0.0 0.0 0.00 0.00 0.00 88 1019.0
20190323044646 60 105 0.0 0.0 0.00 0.00 0.00 88 1019.1
20190323044151 60 105 0.0 0.0 0.00 0.00 0.00 87 1019.0
20190323043645 60 105 0.0 0.0 0.00 0.00 0.00 87 1019.1
20190323043149 60 105 0.0 0.0 0.00 0.00 0.00 87 1019.2
20190323042644 61 105 0.0 0.0 0.00 0.00 0.00 87 1019.3
20190323042149 61 105 0.0 0.0 0.00 0.00 0.00 87 1019.3
20190323041643 61 105 0.0 0.0 0.00 0.00 0.00 87 1019.3
20190323041149 61 104 0.0 0.0 0.00 0.00 0.00 87 1019.4
20190323040643 61 101 0.0 0.0 0.00 0.00 0.00 87 1019.5
20190323040146 61 101 0.0 0.0 0.00 0.00 0.00 87 1019.6
20190323035640 61 101 0.0 0.0 0.00 0.00 0.00 86 1019.5
20190323035148 61 100 0.0 0.0 0.00 0.00 0.00 86 1019.5
20190323034641 61 116 0.0 0.0 0.00 0.00 0.00 86 1019.6
20190323034144 61 116 0.0 0.0 0.00 0.00 0.00 85 1019.6
20190323033641 62 116 0.0 0.0 0.00 0.00 0.00 85 1019.6
20190323033146 62 116 0.0 1.0 0.00 0.00 0.00 84 1019.5
20190323032641 62 116 0.0 1.0 0.00 0.00 0.00 84 1019.6
20190323032145 62 115 0.0 4.0 0.00 0.00 0.00 84 1019.6
20190323031641 62 115 0.0 4.0 0.00 0.00 0.00 83 1019.6
20190323031144 63 115 0.0 4.0 0.00 0.00 0.00 83 1019.6
20190323030639 63 113 0.0 4.0 0.00 0.00 0.00 83 1019.3
20190323030144 63 115 0.0 4.0 0.00 0.00 0.00 83 1019.2
20190323025639 63 117 0.0 4.0 0.00 0.00 0.00 83 1019.1
20190323025143 63 115 0.0 1.0 0.00 0.00 0.00 82 1019.0
20190323024640 63 116 0.0 4.0 0.00 0.00 0.00 82 1019.0
20190323024143 63 121 0.0 4.0 0.00 0.00 0.00 82 1019.0
20190323023639 63 104 1.0 4.0 0.00 0.00 0.00 81 1018.8
20190323023144 63 103 1.0 4.0 0.00 0.00 0.00 81 1018.7
20190323022640 63 115 1.0 6.0 0.00 0.00 0.00 81 1018.7
20190323022142 64 109 0.0 6.0 0.00 0.00 0.00 81 1018.7
20190323021639 64 128 0.0 4.0 0.00 0.00 0.00 81 1018.8
20190323021146 64 125 1.0 5.0 0.00 0.00 0.00 81 1018.8
20190323020637 64 130 2.0 6.0 0.00 0.00 0.00 81 1018.7
20190323020142 64 119 2.0 6.0 0.00 0.00 0.00 82 1018.6
20190323015638 64 105 1.0 6.0 0.00 0.00 0.00 82 1018.6
20190323015144 64 123 1.0 6.0 0.00 0.00 0.00 82 1018.6
20190323014638 64 117 2.0 7.0 0.00 0.00 0.00 82 1018.5
20190323014142 64 134 3.0 7.0 0.00 0.00 0.00 81 1018.5
20190323013638 64 126 2.0 6.0 0.00 0.00 0.00 81 1018.5
20190323013142 64 128 2.0 7.0 0.00 0.00 0.00 81 1018.4
20190323012637 65 132 2.0 7.0 0.00 0.00 0.00 81 1018.5
20190323012142 65 136 2.0 7.0 0.00 0.00 0.00 80 1018.4
20190323011636 65 135 1.0 5.0 0.00 0.00 0.00 79 1018.5
20190323011141 65 130 2.0 5.0 0.00 0.00 0.00 78 1018.5
20190323010635 65 130 3.0 5.0 0.00 0.00 0.00 77 1018.5
20190323010142 66 130 3.0 7.0 0.00 0.00 0.00 76 1018.5
20190323005635 66 139 4.0 8.0 0.00 0.00 0.00 76 1018.5
20190323005142 66 131 4.0 8.0 0.00 0.00 0.00 75 1018.5
20190323004636 67 144 4.0 8.0 0.00 0.00 0.00 74 1018.5
20190323004142 67 142 4.0 8.0 0.00 0.00 0.00 73 1018.4
20190323003635 67 143 4.0 7.0 0.00 0.00 0.00 72 1018.5
20190323003141 67 128 5.0 11.0 0.00 0.00 0.00 71 1018.4
20190323002634 68 134 5.0 11.0 0.00 0.00 0.00 70 1018.4
20190323002142 68 117 5.0 13.0 0.00 0.00 0.00 69 1018.4
20190323001633 68 134 6.0 13.0 0.00 0.00 0.00 69 1018.3
20190323001142 68 137 7.0 13.0 0.00 0.00 0.00 67 1018.2
20190323000634 68 131 6.0 13.0 0.00 0.00 0.00 68 1018.1
20190323000143 68 132 5.0 14.0 0.00 0.00 0.00 68 1018.1
20190322235634 68 142 6.0 14.0 0.00 0.00 0.00 66 1018.1
20190322235142 68 153 6.0 13.0 0.00 0.00 0.00 65 1018.2
20190322234635 69 129 6.0 13.0 0.00 0.00 0.00 65 1018.2
20190322234142 69 146 5.0 15.0 0.00 0.00 0.00 65 1018.2
20190322233631 69 129 7.0 15.0 0.00 0.00 0.00 65 1018.2
20190322233140 69 147 8.0 15.0 0.00 0.00 0.00 64 1018.1
20190322232632 70 119 8.0 16.0 0.00 0.00 0.00 61 1018.0
20190322232139 70 146 8.0 16.0 0.00 0.00 0.00 62 1018.1
20190322231630 71 138 9.0 18.0 0.00 0.00 0.00 59 1018.1
20190322231139 71 122 9.0 18.0 0.00 0.00 0.00 57 1018.1
20190322230632 71 126 8.0 16.0 0.00 0.00 0.00 57 1018.1
20190322230140 71 148 8.0 16.0 0.00 0.00 0.00 59 1018.0
20190322225630 71 156 8.0 14.0 0.00 0.00 0.00 59 1017.9
20190322225136 71 141 9.0 17.0 0.00 0.00 0.00 56 1017.9
20190322224632 71 119 9.0 17.0 0.00 0.00 0.00 56 1018.0
20190322224137 71 161 8.0 15.0 0.00 0.00 0.00 55 1018.1
20190322223631 72 185 8.0 16.0 0.00 0.00 0.00 52 1018.2
20190322223136 72 139 10.0 20.0 0.00 0.00 0.00 52 1018.1
20190322222631 72 158 10.0 20.0 0.00 0.00 0.00 50 1018.1
20190322222137 72 163 9.0 19.0 0.00 0.00 0.00 48 1018.3
20190322221628 72 161 9.0 16.0 0.00 0.00 0.00 47 1018.3
20190322221136 72 155 9.0 18.0 0.00 0.00 0.00 43 1018.2
20190322220629 73 132 9.0 19.0 0.00 0.00 0.00 42 1018.3
20190322220137 73 140 10.0 19.0 0.00 0.00 0.00 42 1018.3
20190322215630 73 153 9.0 19.0 0.00 0.00 0.00 43 1018.3
20190322215136 73 164 9.0 19.0 0.00 0.00 0.00 41 1018.5
20190322214627 73 178 8.0 17.0 0.00 0.00 0.00 38 1018.6
20190322214136 73 167 8.0 17.0 0.00 0.00 0.00 37 1018.7
20190322213628 73 159 9.0 17.0 0.00 0.00 0.00 37 1018.8
20190322213139 73 140 9.0 19.0 0.00 0.00 0.00 37 1018.8
20190322212628 73 150 9.0 19.0 0.00 0.00 0.00 34 1018.8
20190322212137 74 158 8.0 18.0 0.00 0.00 0.00 37 1018.5
20190322211627 74 165 9.0 18.0 0.00 0.00 0.00 37 1018.7
20190322211137 74 161 10.0 20.0 0.00 0.00 0.00 35 1018.7
20190322210627 74 148 9.0 20.0 0.00 0.00 0.00 34 1018.8
20190322210135 74 119 10.0 18.0 0.00 0.00 0.00 34 1018.7
20190322205627 73 138 11.0 18.0 0.00 0.00 0.00 36 1018.8
20190322205135 74 154 10.0 18.0 0.00 0.00 0.00 37 1018.9
20190322204625 74 137 10.0 18.0 0.00 0.00 0.00 33 1019.0
20190322204132 74 148 11.0 18.0 0.00 0.00 0.00 34 1018.9
20190322203623 74 144 10.0 18.0 0.00 0.00 0.00 37 1019.0
20190322203133 74 158 9.0 18.0 0.00 0.00 0.00 36 1019.1
20190322202622 75 146 9.0 20.0 0.00 0.00 0.00 38 1019.2